Stations météo

Publicité
Tarbes/Ossun, France (7621): Température de l'air & dewpoint: 16.02.2017 07:00:00 - 22.02.2017 07:00:00 (CET)Tarbes/Ossun, France (7621): Température de l'air 5cm: 16.02.2017 07:00:00 - 22.02.2017 07:00:00 (CET)Tarbes/Ossun, France (7621): Température de l'air -20cm & Température de l'air -100cm: 16.02.2017 07:00:00 - 22.02.2017 07:00:00 (CET)Tarbes/Ossun, France (7621): Vitesse du vent & gusts: 16.02.2017 07:00:00 - 22.02.2017 07:00:00 (CET)Tarbes/Ossun, France (7621): Direction du vent: 16.02.2017 07:00:00 - 22.02.2017 07:00:00 (CET)Tarbes/Ossun, France (7621): reduced air pressure: 16.02.2017 07:00:00 - 22.02.2017 07:00:00 (CET)Tarbes/Ossun, France (7621): visibility: 16.02.2017 07:00:00 - 22.02.2017 07:00:00 (CET)Tarbes/Ossun, France (7621): Ensoleillement: 16.02.2017 07:00:00 - 22.02.2017 07:00:00 (CET)Tarbes/Ossun, France (7621): Quantités de précipitations: 16.02.2017 07:00:00 - 22.02.2017 07:00:00 (CET)
Date & Time tt [°C] td [°C] tt 5cm [°C] tt -20cm [°C] tt -100cm [°C] ff [km/h] ff [knt] fx [km/h] fx [knt] dd ppp [hPa] vv [km] sd [min] rr [mm]
22.02.2017 07:00:00 1,9 1,0 -2,3 8,4 8,5 10 5 13 7 SSE 1024,9 4,7 0 0,0
22.02.2017 06:00:00 1,6 0,7 -2,1 8,6 8,5 9 5 13 7 S 1024,9 4,0 0 0,0
22.02.2017 05:00:00 2,6 1,7 -0,3 8,8 8,5 11 6 14 8 S 1025,2 3,4 0 0,0
22.02.2017 04:00:00 3,6 2,0 -1,4 8,9 8,5 10 5 14 7 S 1025,6 4,3 0 0,0
22.02.2017 03:00:00 2,4 0,8 -1,0 9,0 8,5 8 4 15 8 SSE 1026,6 5 0 0,0
22.02.2017 02:00:00 3,2 1,9 -0,5 9,2 8,5 9 5 13 7 S 1026,3 3,7 0 0,0
22.02.2017 01:00:00 4,7 3,0 1,2 9,3 8,5 10 5 13 7 S 1026,1 4,8 0 0,0
22.02.2017 00:00:00 4,7 3,0 1,5 9,5 8,5 9 5 13 7 SSE 1026,4 10 0 0,0
21.02.2017 23:00:00 5,5 4,1 - - - 9 5 13 7 S 1026,3 9 - 0,0
21.02.2017 22:00:00 4,8 2,8 0,5 9,7 8,4 6 4 11 6 S 1026,5 12 0 0,0
21.02.2017 21:00:00 4,4 2,4 1,3 9,7 8,4 8 4 10 5 S 1026,6 11 0 0,0
21.02.2017 20:00:00 6,8 4,1 2,2 9,6 8,4 7 4 8 4 SSW 1026,0 16 0 0,0
21.02.2017 19:00:00 10,6 4,5 2,8 9,5 8,4 5 3 9 5 N 1025,1 20 1 0,0
21.02.2017 18:00:00 12,7 4,9 11,7 9,2 8,4 6 3 10 5 N 1024,8 20 35 0,0
21.02.2017 17:00:00 14,9 4,6 16,0 9,0 8,4 2 1 11 6 W 1024,3 20 60 0,0
21.02.2017 16:00:00 14,6 5,4 23,3 8,7 8,4 4 2 14 7 NNE 1024,6 19 60 0,0
21.02.2017 15:00:00 13,3 5,2 19,7 8,4 8,4 7 4 16 9 NNE 1025,4 33 34 0,0
21.02.2017 14:00:00 13,3 5,2 21,9 8,2 8,4 9 5 18 10 N 1026,1 19 58 0,0
21.02.2017 13:00:00 12,7 4,1 21,2 8,1 8,4 8 4 21 11 ENE 1027,1 18 60 0,0
21.02.2017 12:00:00 11,4 4,4 19,1 8,1 8,4 10 5 22 12 N 1027,8 19 60 0,0
21.02.2017 11:00:00 10,5 4,6 14,7 8,3 8,4 8 4 16 9 NNE 1028,0 18 60 0,0
21.02.2017 10:00:00 8,2 3,4 5,5 8,4 8,4 4 2 10 6 SSE 1028,3 18 60 0,0
21.02.2017 09:00:00 4,3 2,0 -1,2 8,5 8,4 10 5 13 7 SSE 1029,0 15 50 0,0
21.02.2017 08:00:00 1,2 0,0 -2,1 8,7 8,4 8 5 13 7 S 1029,0 11 0 0,0
21.02.2017 07:00:00 1,1 -0,2 -2,0 8,9 8,4 7 4 11 6 SSW 1028,5 10 0 0,0
21.02.2017 06:00:00 2,5 1,2 - - - 9 5 15 8 SSE 1028,3 9 - 0,0
21.02.2017 05:00:00 2,5 0,7 -0,4 9,1 8,3 9 5 19 11 S 1028,6 11 0 0,0
21.02.2017 04:00:00 3,2 1,6 -0,3 9,3 8,3 13 7 18 10 S 1029,0 11 0 0,0
21.02.2017 03:00:00 4,0 2,7 0,1 9,4 8,3 7 4 15 8 SSE 1029,3 11 0 0,0
21.02.2017 02:00:00 2,6 0,7 -0,5 9,5 8,3 8 4 11 6 S 1029,8 8 0 0,0
21.02.2017 01:00:00 5,5 2,8 1,6 9,6 8,3 9 5 12 6 NNE 1029,1 12 0 0,0
21.02.2017 00:00:00 7,9 4,3 6,8 9,7 8,3 3 2 9 5 NE 1028,8 20 0 0,0
20.02.2017 23:00:00 8,1 4,3 6,8 9,8 8,3 0 0 8 4 N 1029,4 16 0 0,0
20.02.2017 22:00:00 7,9 4,1 5,7 9,8 8,3 3 2 5 3 E 1029,5 14 0 0,0
20.02.2017 21:00:00 7,6 4,4 5,5 9,8 8,3 5 3 8 4 N 1029,3 13 0 0,0
20.02.2017 20:00:00 8,8 4,0 4,1 9,8 8,2 3 2 11 6 ENE 1028,7 18 0 0,0
20.02.2017 19:00:00 8,0 4,0 4,1 9,8 8,3 7 4 19 11 NNE 1028,6 21 3 0,0
20.02.2017 18:00:00 9,7 4,5 8,8 9,6 8,3 13 7 20 11 N 1027,8 27 31 0,0
20.02.2017 17:00:00 12,5 4,5 13,2 9,4 8,2 10 5 21 11 N 1027,0 32 60 0,0
20.02.2017 16:00:00 13,5 4,1 22,0 9,1 8,2 5 3 18 10 WNW 1027,1 38 60 0,0
20.02.2017 15:00:00 12,4 4,4 14,8 9,0 8,2 7 4 22 12 N 1027,8 19 21 0,0
20.02.2017 14:00:00 12,5 3,2 14,5 8,8 8,2 6 4 17 9 NNW 1028,4 47 39 0,0
20.02.2017 13:00:00 11,7 3,7 15,8 8,7 8,2 11 6 20 11 N 1028,9 23 40 0,0
20.02.2017 12:00:00 10,9 3,0 17,0 8,7 8,2 6 3 16 8 N 1029,3 20 49 0,0
20.02.2017 11:00:00 10,2 3,2 10,8 8,7 8,2 3 2 11 6 NNW 1029,4 30 16 0,0
20.02.2017 10:00:00 8,4 3,6 7,4 8,7 8,2 8 5 12 7 S 1029,6 20 0 0,0
20.02.2017 09:00:00 6,9 3,7 6,1 8,8 8,2 8 4 13 7 SSW 1029,9 20 0 0,0
20.02.2017 08:00:00 6,7 5,0 5,9 8,8 8,2 6 4 10 5 S 1029,4 10 0 0,0
20.02.2017 07:00:00 6,9 5,5 5,8 8,9 8,2 4 2 7 4 NNE 1029,2 5 0 0,0
20.02.2017 06:00:00 7,5 5,6 5,9 8,9 8,2 3 2 7 4 SE 1029,0 10 0 0,0
20.02.2017 05:00:00 7,4 6,2 6,6 9,0 8,2 8 4 9 5 S 1028,8 7 0 0,0
20.02.2017 04:00:00 7,6 5,9 6,8 9,1 8,2 2 1 6 4 W 1029,3 7 0 0,0
20.02.2017 03:00:00 7,7 6,0 6,0 9,1 8,2 3 2 8 5 NNW 1029,5 8 0 0,0
20.02.2017 02:00:00 7,8 5,6 6,1 9,2 8,2 5 3 16 9 WNW 1029,8 10 0 0,0
20.02.2017 01:00:00 8,3 6,4 - - - 11 6 18 10 W 1029,8 8 - -
20.02.2017 00:00:00 8,7 6,5 8,2 9,3 8,2 11 6 19 11 W 1029,8 11 0 0,0
19.02.2017 23:00:00 8,9 7,2 8,3 9,4 8,2 12 7 24 13 W 1029,6 10 0 0,0
19.02.2017 22:00:00 9,2 7,1 7,2 9,4 8,2 16 9 24 13 W 1029,3 12 0 0,0
19.02.2017 21:00:00 8,7 7,0 2,5 9,5 8,2 7 4 17 9 W 1028,7 14 0 0,0
19.02.2017 20:00:00 6,1 3,4 2,5 9,4 8,2 4 2 9 5 WSW 1028,9 18 0 0,0
19.02.2017 19:00:00 9,8 5,0 3,5 9,3 8,1 7 4 12 6 WNW 1027,7 24 4 0,0
19.02.2017 18:00:00 12,0 5,8 10,9 9,1 8,1 3 2 19 10 WNW 1027,1 27 39 0,0
19.02.2017 17:00:00 13,8 5,7 14,9 8,9 8,2 13 7 26 14 NW 1026,8 22 60 0,0
19.02.2017 16:00:00 14,5 5,8 14,1 8,6 8,1 14 7 23 13 NW 1026,8 15 33 0,0
19.02.2017 15:00:00 13,9 5,3 18,1 8,4 8,1 16 9 30 16 WNW 1026,9 20 53 0,0
19.02.2017 14:00:00 14,5 5,6 18,4 8,2 8,1 13 7 20 11 W 1026,9 19 54 0,0
19.02.2017 13:00:00 13,5 6,1 20,2 8,1 8,1 12 7 26 14 W 1027,7 17 56 0,0
19.02.2017 12:00:00 12,0 6,1 19,5 8,0 8,1 9 5 19 10 NW 1028,4 15 57 0,0
19.02.2017 11:00:00 11,4 6,3 12,1 8,0 8,1 4 2 13 7 WSW 1028,5 13 54 0,0
19.02.2017 10:00:00 8,4 4,8 7,5 8,0 8,1 5 3 16 9 SSE 1028,6 10 0 0,0
19.02.2017 09:00:00 6,9 4,0 6,3 8,1 8,1 9 5 13 7 S 1028,2 11 0 0,0
19.02.2017 08:00:00 6,5 4,2 6,3 8,1 8,1 10 5 16 9 S 1027,4 9 0 0,0
19.02.2017 07:00:00 7,6 5,6 6,1 8,1 8,1 10 5 14 8 SW 1026,6 7 0 0,0
19.02.2017 06:00:00 6,3 4,5 6,0 8,2 8,1 8 5 13 7 SSE 1026,3 7 0 0,0
19.02.2017 05:00:00 6,4 4,2 5,7 8,2 8,1 5 3 10 5 SE 1025,7 7 0 0,0
19.02.2017 04:00:00 6,2 3,9 5,4 8,2 8,1 8 5 11 6 SSE 1025,1 9 0 0,0
19.02.2017 03:00:00 7,9 6,0 7,2 8,3 8,1 6 3 17 9 W 1024,8 6 0 0,0
19.02.2017 02:00:00 8,2 6,5 7,5 8,4 8,1 6 3 16 9 SW 1024,3 5 0 0,0
19.02.2017 01:00:00 8,2 7,0 7,5 8,4 8,1 6 3 16 9 W 1024,2 4,5 0 0,0
19.02.2017 00:00:00 8,0 7,6 2,1 8,5 8,1 9 5 15 8 WSW 1023,9 3,8 0 0,0
18.02.2017 23:00:00 7,5 5,8 4,5 8,6 8,1 8 4 20 11 WSW 1023,6 3,8 0 0,0
18.02.2017 22:00:00 8,4 6,2 1,8 8,7 8,1 10 5 27 14 W 1023,0 8 0 0,0
18.02.2017 21:00:00 6,4 3,0 1,6 8,7 8,1 8 4 10 5 SSW 1022,8 39 0 0,0
18.02.2017 20:00:00 7,6 3,8 3,1 8,6 8,1 6 4 9 5 SSW 1022,0 45 0 0,0
18.02.2017 19:00:00 11,8 2,0 3,5 8,5 8,1 5 3 13 7 NNE 1020,9 50 1 0,0
18.02.2017 18:00:00 13,5 2,7 11,8 8,2 8,1 10 5 20 11 NNE 1020,1 60 55 0,0
18.02.2017 17:00:00 15,6 2,7 15,6 7,9 8,1 15 8 22 12 N 1019,2 48 60 0,0
18.02.2017 16:00:00 16,6 2,9 23,1 7,6 8,1 14 7 26 14 N 1019,1 27 60 0,0
18.02.2017 15:00:00 16,7 1,1 24,8 7,2 8,1 9 5 22 12 N 1019,2 53 60 0,0
18.02.2017 14:00:00 16,6 1,8 25,3 7,0 8,1 8 5 18 10 NNE 1019,6 20 60 0,0
18.02.2017 13:00:00 16,1 1,8 25,1 6,9 8,1 10 5 16 9 NNE 1020,6 39 60 0,0
18.02.2017 12:00:00 16,3 3,4 23,6 6,8 8,0 4 2 12 7 NNE 1021,0 9 60 0,0
18.02.2017 11:00:00 14,5 1,0 15,7 6,9 8,0 4 2 11 6 SW 1021,4 8 60 0,0
18.02.2017 10:00:00 10,7 1,0 4,6 7,0 8,1 6 4 14 7 S 1022,1 40 60 0,0
18.02.2017 09:00:00 5,1 -0,1 -1,9 7,2 8,0 13 7 18 10 S 1022,9 10 37 0,0
18.02.2017 08:00:00 3,5 -1,3 -2,8 7,4 8,1 11 6 18 10 S 1023,0 35 0 0,0
18.02.2017 07:00:00 0,7 -2,9 -3,1 7,5 8,0 10 6 14 8 S 1023,6 33 0 0,0
18.02.2017 06:00:00 0,7 -2,5 -2,7 7,7 8,0 9 5 14 7 S 1023,8 26 0 0,0
18.02.2017 05:00:00 3,5 -0,3 -2,3 7,8 8,0 10 5 14 7 SSE 1023,8 20 0 0,0
18.02.2017 04:00:00 0,7 -2,2 -2,9 8,0 8,0 7 4 9 5 S 1024,7 16 0 0,0
18.02.2017 03:00:00 2,1 -0,8 -2,3 8,1 8,0 7 4 13 7 SSE 1025,0 16 0 0,0
18.02.2017 02:00:00 4,7 1,2 -2,0 8,3 8,0 12 6 15 8 S 1025,0 16 0 0,0
18.02.2017 01:00:00 2,3 0,0 -1,7 8,4 8,0 5 3 10 5 SSE 1025,9 15 0 0,0
18.02.2017 00:00:00 1,8 -0,3 -1,3 8,6 8,0 6 3 11 6 S 1026,3 15 0 0,0
17.02.2017 23:00:00 4,1 1,6 -1,2 8,7 8,0 7 4 10 5 SSE 1026,4 26 0 0,0
17.02.2017 22:00:00 5,2 1,5 -0,7 8,7 8,0 7 4 11 6 SSE 1026,6 25 0 0,0
17.02.2017 21:00:00 5,1 1,4 1,0 8,7 8,0 8 4 10 5 SSE 1026,6 24 0 0,0
17.02.2017 20:00:00 6,5 3,1 2,3 8,7 8,0 9 5 11 6 S 1026,3 41 0 0,0
17.02.2017 19:00:00 12,1 2,3 2,3 8,5 8,0 4 2 11 6 NNE 1025,2 56 10 0,0
17.02.2017 18:00:00 14,2 3,6 13,7 8,2 8,0 8 5 17 9 N 1024,8 57 60 0,0
17.02.2017 17:00:00 16,4 3,1 16,0 7,9 8,0 10 5 16 9 N 1024,7 46 60 0,0
17.02.2017 16:00:00 17,1 2,7 24,9 7,5 8,0 8 4 19 10 N 1024,9 29 60 0,0
17.02.2017 15:00:00 17,4 2,5 25,2 7,2 8,0 8 5 22 12 NNE 1025,2 33 60 0,0
17.02.2017 14:00:00 17,3 3,6 26,2 7,0 8,0 6 4 16 9 N 1026,1 14 60 0,0
17.02.2017 13:00:00 16,6 0,7 26,4 6,8 7,9 7 4 15 8 NNE 1026,8 28 60 0,0
17.02.2017 12:00:00 17,4 -0,4 24,3 6,8 8,0 3 2 10 5 S 1027,1 8 60 0,0
17.02.2017 11:00:00 14,6 -1,5 14,6 6,9 8,0 6 3 21 11 S 1027,9 60 60 0,0
17.02.2017 10:00:00 10,5 1,3 6,3 7,0 8,0 13 7 18 10 S 1028,6 48 60 0,0
17.02.2017 09:00:00 5,8 -0,5 -0,8 7,1 8,0 10 5 16 9 SSE 1029,6 47 44 0,0
17.02.2017 08:00:00 2,7 -2,0 -1,7 7,3 8,0 13 7 18 10 S 1029,9 57 0 0,0
17.02.2017 07:00:00 4,5 -1,1 -1,6 7,4 7,9 9 5 14 8 S 1029,6 56 0 0,0
17.02.2017 06:00:00 4,7 -0,9 -0,1 7,6 8,0 9 5 18 10 S 1029,5 58 0 0,0
17.02.2017 05:00:00 4,2 -0,6 -0,8 7,7 7,9 12 6 16 8 S 1029,7 59 0 0,0
17.02.2017 04:00:00 4,1 -0,1 -0,7 7,9 7,9 11 6 17 9 S 1030,0 60 0 0,0
17.02.2017 03:00:00 3,7 0,2 -0,8 8,0 8,0 9 5 14 7 SSE 1030,3 49 0 0,0
17.02.2017 02:00:00 5,9 0,4 -0,8 8,1 7,9 12 7 15 8 S 1030,3 53 0 0,0
17.02.2017 01:00:00 1,9 0,1 -1,5 8,3 7,9 10 5 14 8 SSW 1031,4 28 0 0,0
17.02.2017 00:00:00 2,9 0,1 -0,6 8,4 7,9 8 4 12 7 SSE 1031,5 25 0 0,0
16.02.2017 23:00:00 3,5 0,7 -0,7 8,5 7,9 6 3 10 5 SE 1031,7 24 0 0,0
16.02.2017 22:00:00 4,5 1,5 0,0 8,6 7,9 8 4 12 6 S 1032,0 27 0 0,0
16.02.2017 21:00:00 4,6 1,4 0,4 8,6 7,9 6 3 11 6 S 1032,0 28 0 0,0
16.02.2017 20:00:00 6,8 3,8 2,0 8,6 7,9 6 4 12 6 S 1031,3 55 0 0,0
16.02.2017 19:00:00 10,3 4,0 2,8 8,4 7,9 3 2 8 4 E 1030,3 60 10 0,0
16.02.2017 18:00:00 14,0 4,8 14,7 8,2 7,9 8 4 15 8 N 1029,3 59 60 0,0
16.02.2017 17:00:00 15,6 4,3 15,4 7,9 7,9 10 5 21 12 NNE 1029,0 54 60 0,0
16.02.2017 16:00:00 16,2 1,9 22,5 7,6 7,9 15 8 25 13 NNE 1029,2 60 60 0,0
16.02.2017 15:00:00 17,1 1,1 24,2 7,4 7,9 15 8 23 12 NNE 1029,2 20 60 0,0
16.02.2017 14:00:00 16,8 4,5 24,1 7,1 7,9 11 6 18 10 NNE 1029,6 36 60 0,0
16.02.2017 13:00:00 16,1 5,1 23,5 7,0 7,9 9 5 14 7 N 1030,4 42 60 0,0
16.02.2017 12:00:00 16,2 1,9 19,6 6,9 7,9 2 1 9 5 SW 1031,0 20 31 0,0
16.02.2017 11:00:00 14,4 1,3 14,4 6,9 7,8 5 3 13 7 S 1031,2 60 24 0,0
16.02.2017 10:00:00 11,8 0,2 8,5 7,0 7,9 8 4 17 9 SSE 1031,9 60 55 0,0
16.02.2017 09:00:00 7,4 0,8 1,3 7,1 7,8 13 7 17 9 S 1032,3 57 42 0,0
16.02.2017 08:00:00 4,5 -0,9 0,3 7,3 7,9 11 6 18 10 S 1032,6 60 0 0,0
16.02.2017 07:00:00 5,1 -1,2 2,0 7,4 7,8 16 8 19 11 S 1032,4 60 0 0,0

tt = Température de l'air
td = dewpoint
tt 5cm = Température de l'air 5cm
tt -20cm = Température de l'air -20cm
tt -100cm = Température de l'air -100cm
ff = Vitesse du vent
fx = gusts
dd = Direction du vent
ppp = reduced air pressure
vv = visibility
sd = Ensoleillement
rr = Quantités de précipitations

stations d'obs. à proximité